Flight Track Log - Related Links

Times and Time Zones

All times are in EST time to prevent confusion due to time zone crossing. See the ASQ5740 flight status page for this flight to view local times or setup timezone preferences in your user account.

Time Position Orientation Groundspeed Altitude Reporting Facility
EST Latitude Longitude Course Direction KTS MPH feet Rate Location/Type
Sun 01:03:08 PM 38.9333 -77.5000 230° Southwest 161 185 1,700  Level Potomac TRACON
Sun 01:04:03 PM 38.9167 -77.5500 247° West 209 241 3,900 2,456 Climbing Potomac TRACON
Sun 01:05:59 PM 38.7800 -77.5969 195° South 267 307 8,700 2,386 Climbing Washington Center
Sun 01:06:59 PM 38.7147 -77.6297 201° Southwest 277 319 10,900 1,373 Climbing Washington Center
Sun 01:07:57 PM 38.6344 -77.6939 212° Southwest 318 366 11,400 966 Climbing Washington Center
Sun 01:08:00 PM 38.5153 -78.0040 230° Southwest  Level Estimated
Sun 01:08:57 PM 38.5414 -77.7656 211° Southwest 358 412 12,800  Level Washington Center
Sun 01:09:58 PM 38.4442 -77.8369 226° Southwest 394 453 14,400 1,574 Climbing Washington Center
Sun 01:10:00 PM 38.4674 -77.8625 226° Southwest  Level Estimated
Sun 01:10:59 PM 38.3447 -77.9081 209° Southwest 410 472 16,000  Level Washington Center
Sun 01:11:57 PM 38.2497 -77.9792 210° Southwest 410 472 17,600 1,220 Climbing Washington Center
Sun 01:12:57 PM 38.1564 -78.0503 211° Southwest 410 472 18,400 694 Climbing Washington Center
Sun 01:13:58 PM 38.0589 -78.1236 211° Southwest 410 472 19,000 590 Climbing Washington Center
Sun 01:14:59 PM 37.9758 -78.2128 220° Southwest 405 466 19,600 595 Climbing Washington Center
Sun 01:15:59 PM 37.9025 -78.3156 228° Southwest 397 457 20,200 763 Climbing Washington Center
Sun 01:16:57 PM 37.8292 -78.4261 230° Southwest 403 464 21,100 1,210 Climbing Washington Center
Sun 01:17:58 PM 37.7578 -78.5283 229° Southwest 403 464 22,600 1,587 Climbing Washington Center
Sun 01:18:58 PM 37.6797 -78.6408 229° Southwest 396 456 24,300 1,444 Climbing Washington Center
Sun 01:20:11 PM 37.6106 -78.7378 228° Southwest 390 449 25,800 1,045 Climbing Washington Center
Sun 01:21:10 PM 37.5239 -78.8572 228° Southwest 385 443 26,600 700 Climbing Washington Center
Sun 01:22:11 PM 37.4522 -78.9589 228° Southwest 385 443 27,200 595 Climbing Washington Center
Sun 01:23:11 PM 37.3764 -79.0653 228° Southwest 398 458 27,800 595 Climbing Washington Center
Sun 01:24:12 PM 37.2981 -79.1739 228° Southwest 409 471 28,400 605 Climbing Washington Center
Sun 01:25:10 PM 37.2194 -79.2850 228° Southwest 422 486 29,000 605 Climbing Washington Center
Sun 01:26:11 PM 37.1450 -79.3961 230° Southwest 422 486 29,600 504 Climbing Washington Center
Sun 01:27:09 PM 37.0792 -79.4969 231° Southwest 422 486 30,000 203 Climbing Washington Center
Sun 01:28:09 PM 37.0025 -79.6100 230° Southwest 422 486 30,000 -295 Level Washington Center
Sun 01:29:11 PM 36.9256 -79.7231 230° Southwest 422 486 29,400 -678 Descending Washington Center
Sun 01:31:06 PM 36.7661 -79.9522 229° Southwest 455 524 28,000 -480 Descending Atlanta Center
Sun 01:32:06 PM 36.6844 -80.0706 229° Southwest 460 529 28,000  Level Atlanta Center
Sun 01:33:06 PM 36.6067 -80.1831 229° Southwest 447 514 28,000  Level Atlanta Center
Sun 01:34:06 PM 36.5183 -80.2881 224° Southwest 441 507 28,000 -1,250 Level Atlanta Center
Sun 01:35:06 PM 36.3758 -80.3358 195° South 473 544 25,500 -2,250 Descending Atlanta Center
Sun 01:36:06 PM 36.2539 -80.3775 195° South 473 544 23,500 -1,800 Descending Atlanta Center
Sun 01:37:06 PM 36.1364 -80.4189 196° South 462 532 21,900 -1,300 Descending Atlanta Center
Sun 01:38:06 PM 36.0228 -80.4597 196° South 443 510 20,900 -950 Descending Atlanta Center
Sun 01:39:06 PM 35.9072 -80.5008 196° South 438 504 20,000 -450 Descending Atlanta Center
Sun 01:40:06 PM 35.7914 -80.5392 195° South 430 495 20,000  Level Atlanta Center
Sun 01:41:06 PM 35.7086 -80.6347 223° Southwest 400 460 20,000  Level Atlanta Center
Sun 01:42:06 PM 35.6472 -80.7547 238° Southwest 395 455 20,000 -650 Level Atlanta Center
Sun 01:43:06 PM 35.5875 -80.8697 237° Southwest 407 468 18,700 -1,650 Descending Atlanta Center
Sun 01:44:06 PM 35.5300 -80.9789 237° Southwest 407 468 16,700 -2,031 Descending Atlanta Center
Sun 01:44:11 PM 35.5300 -80.9867 270° West 368 423 16,500 -1,700 Descending Atlanta Center
Sun 01:45:06 PM 35.4783 -81.0856 237° Southwest 394 453 15,000 -1,364 Descending Atlanta Center
Sun 01:46:01 PM 35.4283 -81.1842 238° Southwest 377 434 14,000 -1,100 Descending Atlanta Center
Sun 01:46:06 PM 35.4203 -81.1922 219° Southwest 388 447 13,900 -831 Descending Atlanta Center
Sun 01:47:06 PM 35.3664 -81.3008 239° Southwest 388 447 13,100 -774 Descending Atlanta Center
Sun 01:47:08 PM 35.3625 -81.3061 228° Southwest 373 429 13,100 -400 Level Atlanta Center
Sun 01:48:06 PM 35.3103 -81.4044 237° Southwest 375 432 12,700 -393 Descending Atlanta Center
Sun 01:48:09 PM 35.3083 -81.4097 246° West 366 421 12,700 -800 Level Atlanta Center
Sun 01:49:06 PM 35.2600 -81.5003 237° Southwest 375 432 11,900 -974 Descending Atlanta Center
Sun 01:50:06 PM 35.2058 -81.6036 237° Southwest 375 432 10,800 -950 Descending Atlanta Center
Sun 01:51:06 PM 35.1517 -81.7069 237° Southwest 375 432 10,000 -450 Descending Atlanta Center
Sun 01:52:06 PM 35.0928 -81.7972 231° Southwest 370 426 9,900 -950 Descending Atlanta Center
Sun 01:53:06 PM 35.0417 -81.8622 226° Southwest 322 371 8,100 -1,950 Descending Atlanta Center
Sun 01:54:06 PM 34.9867 -81.9294 225° Southwest 290 334 6,000 -1,750 Descending Atlanta Center
Sun 01:55:06 PM 34.9378 -82.0017 230° Southwest 285 328 4,600 -1,000 Descending Atlanta Center
Sun 01:56:06 PM 34.8908 -82.0736 232° Southwest 274 315 4,000 -850 Descending Atlanta Center
Sun 01:57:06 PM 34.8608 -82.1503 245° Southwest 269 310 2,900 -650 Descending Atlanta Center
Sun 01:58:06 PM 34.8119 -82.2325 234° Southwest 264 304 2,700 -200 Descending Atlanta Center

Login

Don't have an account? Register now (free) for customized features, flight alerts, and more!